Weather History for KSGH - May, 2013

Change the Weather History Date:

Thursday, May 16, 2013

  Actual Average (KDAY) Record (KDAY)
Temperature  
Mean Temperature 67 °F 61 °F  
Max Temperature 73 °F 72 °F 94 °F (1900)
Min Temperature 61 °F 51 °F 32 °F (1904)
Degree Days  
Heating Degree Days 0 5  
Month to date heating degree days 111  
Since 1 July heating degree days 5562  
Cooling Degree Days 2 2  
Month to date cooling degree days 20  
Year to date cooling degree days 30  
Growing Degree Days 17 (Base 50)    
Moisture  
Dew Point 59 °F    
Average Humidity 76    
Maximum Humidity 100    
Minimum Humidity 48    
Precipitation  
Precipitation 0.02 in 0.15 in 1.16 in (1909)
Month to date precipitation 2.40  
Year to date precipitation 14.78  
Snow  
Snow 0.00 in 0.00 in - ()
Month to date snowfall 0.0  
Since 1 July snowfall 23.3  
Snow Depth -    
Sea Level Pressure  
Sea Level Pressure 29.92 in    
Wind  
Wind Speed 9 mph (WSW)    
Max Wind Speed 17 mph    
Max Gust Speed -    
Visibility 7 miles    
Events Rain , Thunderstorm    
T = Trace of Precipitation, MM = Missing Value Source: NWS Daily Summary

Daily Weather History Graph

Daily Weather History Graph

Search for Another Location

Airport or City:

Trip Planner

Search our weather history database for the weather conditions in past years. The results will help you decide how hot, cold, wet, or windy it might be!

Date:

Astronomy

May. 16, 2013 Rise Set
Actual Time 6:19 AM EDT 8:44 PM EDT
Civil Twilight 5:48 AM EDT 9:15 PM EDT
Nautical Twilight 5:10 AM EDT 9:53 PM EDT
Astronomical Twilight 4:28 AM EDT 10:35 PM EDT
Moon 11:51 AM EDT (5/16) 1:05 AM EDT (5/16)
Length of Visible Light 15h 26m
Length of Day
14h 25m
Waxing Crescent, 35% of the Moon is Illuminated
May 16
Waxing Crescent
May 18
First Quarter
May 25
Full
May 31
Last Quarter
Jun 8
New

Hourly Weather History & Observations

Time (EDT) Temp. Dew Point Humidity Pressure Visibility Wind Dir Wind Speed Gust Speed Precip Events Conditions
12:56 AM 72.9 °F 54.0 °F 51% 29.84 in 9.0 mi SW 17.3 mph - N/A Thunderstorm Clear
1:56 AM 70.0 °F 54.9 °F 59% 29.84 in 10.0 mi WSW 13.8 mph - 0.00 in   Scattered Clouds
2:56 AM 66.9 °F 56.8 °F 70% 29.85 in 9.0 mi WSW 9.2 mph - 0.00 in   Mostly Cloudy
3:56 AM 66.9 °F 56.8 °F 70% 29.84 in 9.0 mi WSW 10.4 mph - 0.00 in   Mostly Cloudy
4:56 AM 66.9 °F 56.8 °F 70% 29.86 in 9.0 mi NW 6.9 mph - 0.00 in   Partly Cloudy
5:12 AM 66.2 °F 57.2 °F 73% 29.88 in 8.0 mi WNW 6.9 mph - N/A Thunderstorm Mostly Cloudy
5:56 AM 63.9 °F 57.9 °F 81% 29.87 in 7.0 mi West 11.5 mph - 0.01 in Rain , Thunderstorm Light Thunderstorms and Rain
6:33 AM 62.6 °F 55.4 °F 77% 29.89 in 8.0 mi WSW 9.2 mph - 0.01 in Rain Light Rain
6:56 AM 61.0 °F 56.8 °F 86% 29.88 in 9.0 mi WSW 8.1 mph - 0.01 in Rain Light Rain
7:44 AM 62.6 °F 60.8 °F 94% 29.92 in 4.0 mi WSW 6.9 mph - 0.00 in Rain , Thunderstorm Light Thunderstorms and Rain
7:56 AM 63.0 °F 61.9 °F 96% 29.90 in 4.0 mi WSW 6.9 mph - 0.00 in Rain Light Rain
8:56 AM 64.9 °F 63.0 °F 93% 29.91 in 5.0 mi West 5.8 mph - 0.00 in   Clear
9:56 AM 65.8 °F 61.9 °F 87% 29.93 in 5.0 mi West 5.8 mph - 0.00 in   Mostly Cloudy
10:24 AM 66.2 °F 62.6 °F 88% 29.94 in 6.0 mi West 3.5 mph - N/A   Scattered Clouds
10:56 AM 66.9 °F 61.9 °F 84% 29.93 in 6.0 mi WSW 5.8 mph - N/A   Haze
11:21 AM 66.2 °F 62.6 °F 88% 29.96 in 5.0 mi SSW 6.9 mph - N/A   Scattered Clouds
11:56 AM 68.0 °F 63.0 °F 84% 29.96 in 4.0 mi West 6.9 mph - 0.00 in Rain Light Rain
12:56 PM 70.9 °F 61.9 °F 73% 29.93 in 6.0 mi Variable 3.5 mph - 0.00 in   Haze
1:56 PM 72.9 °F 56.8 °F 57% 29.93 in 8.0 mi South 5.8 mph - N/A   Clear
2:56 PM 73.9 °F 52.9 °F 48% 29.95 in 9.0 mi WSW 4.6 mph - 0.00 in   Partly Cloudy
3:56 PM 72.9 °F 57.9 °F 59% 29.94 in 9.0 mi North 5.8 mph - N/A   Clear
4:56 PM 73.9 °F 56.8 °F 55% 29.95 in 7.0 mi North 3.5 mph - N/A   Clear
5:22 PM 71.6 °F 59.0 °F 64% 29.98 in 8.0 mi SSW 10.4 mph - N/A   Mostly Cloudy
5:56 PM 70.9 °F 61.0 °F 71% 29.96 in 8.0 mi SSW 9.2 mph - N/A   Clear
6:56 PM 70.9 °F 61.0 °F 71% 29.94 in 9.0 mi WSW 8.1 mph - N/A   Clear
7:56 PM 70.0 °F 61.0 °F 73% 29.94 in 9.0 mi WNW 3.5 mph - N/A   Clear
8:56 PM 65.8 °F 59.9 °F 81% 29.96 in 8.0 mi SSW 5.8 mph - N/A   Clear
9:56 PM 63.9 °F 61.0 °F 90% 29.99 in 9.0 mi SSW 6.9 mph - N/A   Clear
10:56 PM 63.0 °F 61.0 °F 93% 30.00 in 7.0 mi SSW 4.6 mph - N/A   Clear
11:56 PM 61.0 °F 61.0 °F 100% 29.99 in 2.5 mi SW 5.8 mph - N/A   Clear